Simultaneous Nadir Overpasses (SNOs) Predictions

Prediction of SNOs between AQUA and NOAA-19 Satellite Orbit:

Table of predicted SNOs for the next 14.0 days since TLE Epoch: 5/6/2023
Index Date (AQUA) Time (AQUA) Lat,Lon (AQUA) SZA (AQUA ) Date (NOAA-19) Time (NOAA-19) Lat,Lon (NOAA-19) SZA (NOAA-19 ) Distance(km) Time Diff (sec)
1 05/06/2023 13:23:13 76.58, -31.19 60.14 05/06/2023 13:22:44 76.55, -31.22 60.13 3.08 29
2 05/06/2023 14:12:38 -76.62, 136.32 119.82 05/06/2023 14:13:48 -76.62, 136.29 119.83 0.80 70
3 05/08/2023 18:05:32 76.55,-101.64 59.50 05/08/2023 18:04:19 76.46,-101.89 59.45 11.26 73
4 05/08/2023 18:54:57 -76.58, 65.87 120.47 05/08/2023 18:55:22 -76.57, 65.78 120.48 2.85 25
5 05/10/2023 23:37:15 -76.54, -4.54 121.10 05/10/2023 23:36:55 -76.56, -4.60 121.07 2.43 20
6 05/11/2023 00:26:41 76.58, 162.97 58.94 05/11/2023 00:27:48 76.59, 162.81 58.95 4.24 67
7 05/13/2023 04:19:33 -76.54, -75.08 121.66 05/13/2023 04:18:28 -76.53, -75.02 121.65 1.68 65
8 05/13/2023 05:08:59 76.58, 92.42 58.39 05/13/2023 05:09:21 76.58, 92.43 58.38 0.62 22
9 05/15/2023 09:51:16 76.57, 21.91 57.84 05/15/2023 09:50:54 76.55, 22.02 57.83 3.47 22
10 05/15/2023 10:40:43 -76.70,-170.90 122.02 05/15/2023 10:41:55 -76.72,-170.06 122.05 21.58 72
11 05/17/2023 14:33:31 76.50, -48.41 57.26 05/17/2023 14:32:27 76.52, -48.42 57.29 2.28 64
12 05/17/2023 15:22:57 -76.59, 118.96 122.66 05/17/2023 15:23:30 -76.59, 119.09 122.66 3.55 33
13 05/19/2023 20:05:12 -76.56, 48.51 123.17 05/19/2023 20:05:03 -76.54, 48.56 123.19 2.40 9



Historial Predications of SNOs between AQUA and NOAA-19
